Showing default

SPACEMOBILE-005, 61046

Orbit data source: Space-Track

SPACEMOBILE-005, 61046 is a payload satellite owned by AST & Science (US) in LEO that was launched on Thu, 12 Sep 2024 UTC via an FALCON 9 launch vehicle from the Air Force Eastern Test Range (AFETR). Payloads include a variety of satellites, spacecraft, and rockets equipped with specific instruments for various scientific and technological missions. These include communications satellites like Starlink; space stations such as the ISS; scientific satellites like the Hubble; Earth observation satellites from companies like Planet Labs, Umbra, and HawkEye 360; GPS; miniature CubeSats for education and research; and military/defense satellites.

Loading next visibility...
SPACEMOBILE-005 details
Identifier
61046, 2024-163B
Orbit
LEO
Last TLE update1 day ago
Origin
Flag of USAST & Science (US)
ManufacturerAST & Science
MissionOperational Commercial Communications
Bus & MotorBW3, Unknown motor
Mass1,500 kg wet, 1,500 kg dry
Launch date (UTC)
2024-09-12 (5 months ago)
Launch vehicle
FALCON 9
Launch site
Air Force Eastern Test Range (AFETR)
Object type
Payload
Rocket body
Debris
Shape & HBRBox + 1 Plate, 9 m
Radar Cross Section1.500 m², Large (>1 m²)

Expand to show TLE details & history

TLE from 1 day ago
0 SPACEMOBILE-005
1 61046U 24163B   25042.48707064  .00007219  00000-0  35164-3 0  9993
2 61046  52.9790  45.0544 0013283  70.4407 289.8020 15.19328706 23109
Epoch: 2025-02-11T11:41Z
Definitive object data (Epoch: 2025-02-11T11:41:22.903Z)
Latitude0.00001°
Longitude87.91779°
Altitude505.656 km
Speed7.614 km/s
True Right ascension03h 00m 13s
True Declination0° 00' 00"
Sunlit
Object was in daylight at TLE epoch
Visualization TLE readout
Latitude28.88901°
Longitude-121.47664°
Altitude506.052 km
Speed7.617 km/s
Apparent Right ascension09h 29m 19s
Apparent Declination-9° 54' 20"
Sunlit
Object is in full shadow
Visualization observer readout
Local Sidereal Time16:05:24
Azimuth268.069° W
Elevation-13.231°
Doppler factor1
Orbital elements
Apogee altitude517.3 km
Perigee altitude499.006 km
Semi-major axis6,886.29 km
Eccentricity0.0013283
Inclination52.979°
RAAN45.0544°
Arg. of periapsis70.4407°
True anomaly289.65871°
Mean anomaly289.802°
Eccentric anomaly289.73036°
Mean motion3.79809 °/min
BSTAR0.00035164
Orbital period94.78 mins
Loading maneuver chart data...
Loading historical data...
Loading historical data...
Loading historical data...
Loading historical data...
Loading historical data...
Loading historical data...
Loading historical data...

SPACEMOBILE-005 Visibility forecast

Observer location: undefined°, undefined

Span
Click to sort rows by Start time (UTC) header in descending order
Start Az.
Max El. time (UTC)
Max El. Az.
Max El.
End time (UTC)
End Az.
6 mins2025-02-13 01:44:28.333Z189.894° SSW2025-02-13 01:47:28.333Z118.618° SE27.649°2025-02-13 01:50:28.333Z68.212° E
5 mins2025-02-13 03:23:28.333Z273.757° WNW2025-02-13 03:25:28.333Z321.613° NNW29.252°2025-02-13 03:28:28.333Z30.775° NE
5 mins2025-02-13 08:22:28.333Z333.826° NNW2025-02-13 08:24:28.333Z19.719° NNE29.701°2025-02-13 08:27:28.333Z92.719° ESE
5 mins2025-02-13 10:01:28.333Z275.766° WNW2025-02-13 10:03:28.333Z224.469° SW27.464°2025-02-13 10:06:28.333Z166.97° S
|